Starlink 6223

operational
NORAD ID: 57057 Int'l Des: 2023-088 Owner: SPXS Country: US Constellation: starlink
LEOCIRCULAR

关于 Starlink 6223

正在加载描述...

实时位置

正在加载3D地球...

即将过境

高度历史

Altitude vs Time

uPlot chart will show altitude changes over time

两行轨道根数

1 57057U 23088K 25352.93617748 .00000351 00000-0 41044-4 0 9993
2 57057 43.0018 186.1320 0001064 257.7372 102.3351 15.02538918138220
Epoch: Dec 18, 2025 • Age: 18 hours

当前状态

高度 563.0 km
速度 7.59 km/s
星下点 43.11°N, 59.48°W
发射日期 Jun 22, 2023
运行时间 2.4 years
类型 internet

技术详情

分类 Payload
质量 305.00 kg
干质量 290.00 kg
总质量 305.00 kg
长度 0.20 m
直径 2.80 m
跨度 9.00 m
形状 Box + pan
制造商 SPXS
平台类型 Starlink
阶段状态 In Orbit
所有者/国家 SPXS/US

大型星座

Loading constellations...